Showing default

QUETZSAT 1, 37826

Orbit data source: Space-Track

QUETZSAT 1, 37826 is a payload satellite owned by SES Sat. Leasing (MX) in GEO that was launched on Thu, 29 Sep 2011 UTC via a PROTON-M/BRIZ-M launch vehicle from the Tyuratam Missile And Space Complex (TTMTR). Payload-class satellites include a variety of spacecraft equipped with specific instruments for various scientific and technological missions. These include communications satellites like Starlink; space stations such as the ISS; scientific satellites like the Hubble; Earth observation satellites from companies like Planet Labs, Umbra, and HawkEye 360; GPS; miniature CubeSats for education and research; and military/defense satellites.

Loading next visibility...
Identifier
37826, 2011-054A
Orbit
GEO
Country
Flag of MXMX / MEX
Related business
Manufacturer
SS/Loral
Mission
Operational Commercial Communications
Bus & Motor
SSL-1300, R-4D-15-300?
Mass
5,514 kg wet, 2,472 kg dry
Launch date (UTC)
2011-09-29 (14 years ago)
Launch vehicle
PROTON-M/BRIZ-M
Launch site
Tyuratam Missile And Space Complex (TTMTR)
Object type
Payload
Rocket body
Debris
Shape & HBR
Box + 2 Pan, 13.3 m
Radar Cross Section
28.987 m², Large (>1 m²)

Expand to show TLE details & history
Last TLE update: 6 hours ago

TLE from 6 hours ago
0 QUETZSAT 1
1 37826U 11054A   25299.12393669 -.00000230  00000-0  00000+0 0  9998
2 37826   0.0599  69.4153 0002257 143.8059 149.1913  1.00272098 47520
Epoch: 2025-10-26T02:58Z
TLE epoch observation values (Epoch: 2025-10-26T02:58:28.130Z)
Latitude
-0.0355°
Longitude
-76.97186°
Altitude
35,794.207 km
Speed
3.074 km/s
True Right ascension
00h 09m 33s
True Declination
0° 02' 08"
Sunlit
Object was in daylight at epoch
Visualization orbit readout
Latitude
Unknown
Longitude
Unknown
Altitude
Unknown
Speed
Unknown
Apparent Right ascension
Unknown
Apparent Declination
Unknown
Sunlit
N/A
Visualization observer readout
Local Sidereal Time
04:00:17
Azimuth
Unknown
Elevation
Unknown
Doppler factor
Unknown
Orbital elements
Apogee altitude
35,797.094 km
Perigee altitude
35,778.061 km
Semi-major axis
42,165.715 km
Eccentricity
0.00023
Inclination
0.0599°
RAAN
69.4153°
Arg. of periapsis
143.8059°
True anomaly
149.20454°
Mean anomaly
149.1913°
Eccentric anomaly
149.19792°
Mean motion
0.25067 °/min
Orbital period
1,436.15 mins
BSTAR
0
Loading maneuver chart data...
Computing Atmospheric mass density...
Loading historical data...
Loading historical data...
Loading historical data...
Loading historical data...
Loading historical data...
Loading historical data...
Loading historical data...
Other satellites on launch #54 in the year 2011 (2011-09-29 UTC)

Documentation

Showing up to 5 results
|